Content
SEND FEEDBACK

Daily
Averages
Monthly
Summary
United States of America

BLAKELY, GEORGIA


Home > North America > United States > Georgia
Elevation: 259 feet     Latitude: 31 21N     Longitude: 084 57W

WEATHER
 
SELECT A DAY
Number of Records: 197,021;   Date Range: 1/5/06 - 8/14/14
 
SHARE

PRINT THIS DATA

[ ← Previous Day ]
WEATHER ALMANAC - JANUARY 23, 2013
[ Next Day → ]
[ °C ]   °F
Weather ElementAverageHighLow
Temperature46.8 °F62.6 °F (2:55 pm)32 °F (1:35 am)
Dewpoint37.5 °F46.4 °F (10:55 pm)32 °F (1:35 am)
Humidity74.3 %100 % (12:35 am)44 % (11:35 am)
Barometer30.35 in30.44 in (9:35 am)30.29 in (11:35 pm)
Wind Speed2 mph9.2 mph (2:55 pm)
Weather ElementAverage
Visibility9.1 mi
Wind DirectionE (94 °)

Weather ElementTotal
Precipitation---
Heating Degree Days17.7 (Base 65)
Averaged from 68 records on January 23, 2013
WEATHER CONDITIONS BREAKOUT
WIND DIRECTION BREAKOUT
WEATHER BY HOUR - JANUARY 23, 2013
[ °C ]   °F
Local TimeTemperatureDewpointHumidityBarometerVisibilityWind DirectionWind SpeedGust SpeedPrecipitationEventsConditions
12:35 AM33.8 °F33.8 °F100 %30.34 in3.0 miCalmClear
12:55 AM33.8 °F33.8 °F100 %30.34 in4.0 miCalmClear
1:15 AM33.8 °F33.8 °F100 %30.34 in4.0 miCalmClear
1:35 AM32.0 °F32.0 °F100 %30.35 in4.0 miCalmClear
1:55 AM32.0 °F32.0 °F100 %30.34 in7.0 miCalmClear
2:15 AM32.0 °F32.0 °F100 %30.35 in4.0 miCalmClear
2:35 AM32.0 °F32.0 °F100 %30.34 in7.0 miCalmClear
2:55 AM32.0 °F32.0 °F100 %30.34 in7.0 miCalmClear
3:15 AM32.0 °F32.0 °F100 %30.35 in5.0 miCalmClear
3:35 AM32.0 °F32.0 °F100 %30.36 in7.0 miCalmClear
3:55 AM32.0 °F32.0 °F100 %30.36 in10.0 miCalmClear
4:55 AM32.0 °F32.0 °F100 %30.36 in5.0 miCalmClear
5:15 AM32.0 °F32.0 °F100 %30.36 in7.0 miCalmClear
5:35 AM32.0 °F32.0 °F100 %30.37 in10.0 miCalmClear
5:55 AM32.0 °F32.0 °F100 %30.37 in10.0 miCalmClear
6:15 AM32.0 °F32.0 °F100 %30.38 in10.0 miCalmClear
6:35 AM32.0 °F32.0 °F100 %30.38 in10.0 miCalmScattered Clouds
7:15 AM32.0 °F32.0 °F100 %30.40 in10.0 miCalmMostly Cloudy
7:35 AM32.0 °F32.0 °F100 %30.40 in10.0 miCalmOvercast
7:55 AM33.8 °F33.8 °F100 %30.41 in10.0 miCalmOvercast
8:15 AM35.6 °F33.8 °F93 %30.42 in7.0 miCalmOvercast
8:35 AM35.6 °F35.6 °F100 %30.42 in10.0 miCalmOvercast
8:55 AM37.4 °F33.8 °F87 %30.42 in10.0 miCalmOvercast
9:15 AM39.2 °F33.8 °F81 %30.43 in10.0 miCalmOvercast
9:35 AM41.0 °F33.8 °F76 %30.44 in10.0 miCalmOvercast
9:55 AM42.8 °F33.8 °F70 %30.44 in10.0 miCalmOvercast
10:15 AM46.4 °F32.0 °F57 %30.44 in10.0 miCalmOvercast
10:35 AM48.2 °F32.0 °F54 %30.44 in10.0 miSouth (170°)3.5 mphMostly Cloudy
10:55 AM50.0 °F32.0 °F50 %30.43 in10.0 miCalmClear
11:15 AM51.8 °F32.0 °F47 %30.43 in10.0 miCalmClear
11:35 AM53.6 °F32.0 °F44 %30.42 in10.0 miCalmClear
11:55 AM53.6 °F32.0 °F44 %30.42 in10.0 miCalmClear
12:15 PM55.4 °F33.8 °F44 %30.40 in10.0 miSW (220°)3.5 mphClear
12:35 PM57.2 °F35.6 °F44 %30.39 in10.0 miSW (230°)4.6 mphClear
12:55 PM59.0 °F37.4 °F45 %30.38 in10.0 miNW (310°)6.9 mphClear
1:15 PM59.0 °F39.2 °F48 %30.37 in10.0 miNW (310°)5.8 mphClear
1:35 PM59.0 °F39.2 °F48 %30.36 in10.0 miWNW (290°)3.5 mphClear
1:55 PM60.8 °F39.2 °F45 %30.34 in10.0 miSouth (190°)3.5 mphClear
2:15 PM59.0 °F39.2 °F48 %30.33 in10.0 miWSW (240°)6.9 mphScattered Clouds
2:35 PM60.8 °F41.0 °F48 %30.33 in10.0 miWNW (290°)5.8 mphScattered Clouds
2:55 PM62.6 °F41.0 °F45 %30.32 in10.0 miWSW (240°)9.2 mphMostly Cloudy
3:15 PM62.6 °F41.0 °F45 %30.31 in10.0 miWNW (300°)6.9 mphMostly Cloudy
3:35 PM62.6 °F41.0 °F45 %30.31 in10.0 miWest (260°)6.9 mphMostly Cloudy
3:55 PM60.8 °F41.0 °F48 %30.31 in10.0 miCalmOvercast
4:15 PM60.8 °F41.0 °F48 %30.32 in10.0 miWest (260°)3.5 mphMostly Cloudy
4:35 PM62.6 °F41.0 °F45 %30.30 in10.0 miSSW (210°)6.9 mphScattered Clouds
4:55 PM60.8 °F42.8 °F52 %30.30 in10.0 miSW (230°)6.9 mphClear
5:15 PM60.8 °F42.8 °F52 %30.31 in10.0 miWest (270°)5.8 mphMostly Cloudy
5:35 PM60.8 °F42.8 °F52 %30.32 in10.0 miWest (260°)4.6 mphOvercast
5:55 PM60.8 °F42.8 °F52 %30.31 in10.0 miWSW (250°)3.5 mphOvercast
6:15 PM59.0 °F42.8 °F55 %30.30 in10.0 miSW (230°)3.5 mphOvercast
6:35 PM59.0 °F42.8 °F55 %30.30 in10.0 miCalmOvercast
6:55 PM55.4 °F42.8 °F63 %30.30 in10.0 miCalmScattered Clouds
7:15 PM53.6 °F42.8 °F67 %30.30 in10.0 miCalmClear
7:35 PM50.0 °F42.8 °F76 %30.30 in10.0 miCalmClear
7:55 PM48.2 °F42.8 °F82 %30.30 in10.0 miCalmClear
8:15 PM48.2 °F42.8 °F82 %30.30 in10.0 miCalmClear
8:35 PM46.4 °F42.8 °F87 %30.30 in10.0 miCalmClear
8:55 PM46.4 °F42.8 °F87 %30.30 in10.0 miCalmClear
9:15 PM44.6 °F42.8 °F93 %30.30 in10.0 miCalmClear
9:35 PM46.4 °F42.8 °F87 %30.31 in10.0 miCalmScattered Clouds
9:55 PM46.4 °F42.8 °F87 %30.31 in10.0 miSW (230°)4.6 mphMostly Cloudy
10:15 PM50.0 °F42.8 °F76 %30.30 in10.0 miSW (230°)5.8 mphScattered Clouds
10:35 PM51.8 °F44.6 °F76 %30.30 in10.0 miSW (230°)4.6 mphScattered Clouds
10:55 PM53.6 °F46.4 °F77 %30.31 in10.0 miWSW (250°)3.5 mphMostly Cloudy
11:15 PM51.8 °F46.4 °F82 %30.30 in10.0 miSW (220°)4.6 mphMostly Cloudy
11:35 PM51.8 °F46.4 °F82 %30.29 in10.0 miSW (230°)5.8 mphClear
11:55 PM51.8 °F46.4 °F82 %30.29 in10.0 miWSW (240°)4.6 mphClear
Hourly data recorded from KBIJ, located miles away from Blakely, Georgia







STORIES FROM OUR PARTNERS